FW4334 Weather Reports


Display with metric or nautical units.
time (UTC)temp
F
wind
direction
speed
MPH
gust
MPH
rain 1hr
in
rain 24hr
in
rain mn
in
humidity
%
barometer
mb
20260510051549 71 174 0.0 2.0 0.00 0.19 0.00 94 1014.4
20260510051044 71 174 0.0 2.0 0.00 0.19 0.00 94 1014.4
20260510050544 71 150 0.0 2.0 0.00 0.19 0.00 94 1014.4
20260510050043 71 209 0.0 2.0 0.00 0.19 0.00 94 1014.6
20260510045541 70 209 0.0 3.0 0.00 0.19 0.00 94 1014.6
20260510045039 70 209 0.0 3.0 0.00 0.19 0.00 94 1014.8
20260510044538 70 196 0.0 3.0 0.00 0.19 0.00 94 1014.8
20260510044038 70 163 0.0 0.0 0.00 0.19 0.00 94 1014.7
20260510043538 70 146 0.0 0.0 0.00 0.19 0.00 93 1014.8
20260510043045 70 146 0.0 0.0 0.00 0.19 0.00 93 1014.8
20260510042537 70 146 0.0 0.0 0.00 0.19 0.00 93 1014.8
20260510042039 70 146 0.0 0.0 0.00 0.19 0.00 93 1014.8
20260510041536 70 146 0.0 0.0 0.00 0.19 0.00 93 1014.6
20260510041037 70 146 0.0 0.0 0.00 0.19 0.00 93 1014.7
20260510040536 70 146 0.0 0.0 0.00 0.19 0.00 93 1014.8
20260510040040 70 146 0.0 0.0 0.00 0.19 0.00 93 1014.7
20260510035534 70 146 0.0 0.0 0.00 0.19 0.19 93 1014.7
20260510035033 70 146 0.0 0.0 0.00 0.19 0.19 93 1014.7
20260510034533 70 146 0.0 0.0 0.00 0.19 0.19 93 1014.6
20260510034033 70 146 0.0 0.0 0.00 0.19 0.19 93 1014.6
20260510033533 70 146 0.0 0.0 0.00 0.19 0.19 93 1014.5
20260510033033 70 146 0.0 0.0 0.00 0.19 0.19 93 1014.8
20260510032533 70 146 0.0 0.0 0.00 0.19 0.19 93 1014.8
20260510032033 70 146 0.0 0.0 0.00 0.19 0.19 93 1014.9
20260510031534 70 146 0.0 0.0 0.00 0.19 0.19 93 1014.9
20260510031033 70 146 0.0 0.0 0.00 0.19 0.19 93 1014.9
20260510030532 70 146 0.0 0.0 0.00 0.19 0.19 93 1014.7
20260510030032 70 146 0.0 0.0 0.00 0.19 0.19 93 1014.6
20260510025532 70 146 0.0 0.0 0.00 0.19 0.19 93 1014.7
20260510025032 70 145 0.0 0.0 0.00 0.19 0.19 93 1014.6
20260510024531 70 145 0.0 0.0 0.00 0.19 0.19 93 1014.4
20260510024031 70 145 0.0 0.0 0.00 0.19 0.19 93 1014.5
20260510023531 70 145 0.0 0.0 0.00 0.19 0.19 93 1014.4
20260510023031 70 145 0.0 0.0 0.00 0.19 0.19 93 1014.3
20260510022633 70 145 0.0 0.0 0.00 0.19 0.19 93 1014.1
20260510022030 70 145 0.0 0.0 0.00 0.19 0.19 93 1014.0
20260510021539 70 145 0.0 0.0 0.00 0.19 0.19 93 1013.8
20260510021030 70 145 0.0 0.0 0.00 0.19 0.19 93 1013.8
20260510020534 70 145 0.0 0.0 0.00 0.19 0.19 93 1013.7
20260510020030 70 145 0.0 0.0 0.00 0.19 0.19 93 1013.6
20260510015534 70 145 0.0 0.0 0.00 0.19 0.19 93 1013.7
20260510015029 70 145 0.0 0.0 0.00 0.19 0.19 93 1013.7
20260510014533 70 145 0.0 0.0 0.00 0.19 0.19 93 1013.7
20260510014029 70 145 0.0 0.0 0.00 0.19 0.19 93 1013.5
20260510013529 70 145 0.0 0.0 0.00 0.19 0.19 93 1013.5
20260510013030 70 145 0.0 0.0 0.00 0.19 0.19 93 1013.2
20260510012531 70 145 0.0 0.0 0.00 0.19 0.19 93 1013.3
20260510012029 70 145 0.0 0.0 0.00 0.19 0.19 93 1013.3
20260510011539 71 145 0.0 0.0 0.00 0.19 0.19 92 1013.1
20260510011028 71 145 0.0 0.0 0.00 0.19 0.19 92 1013.2
20260510010528 71 145 0.0 0.0 0.00 0.19 0.19 92 1013.0
20260510010029 71 145 0.0 0.0 0.00 0.19 0.19 92 1013.0
20260510005529 71 145 0.0 0.0 0.00 0.19 0.19 92 1013.1
20260510005028 71 145 0.0 0.0 0.01 0.19 0.19 92 1013.2
20260510004531 71 145 0.0 0.0 0.01 0.19 0.19 92 1013.3
20260510004030 71 145 0.0 1.0 0.01 0.19 0.19 92 1013.3
20260510003527 71 145 0.0 1.0 0.01 0.19 0.19 92 1013.5
20260510003028 71 80 0.0 0.0 0.01 0.19 0.19 92 1013.4
20260510002529 71 80 0.0 0.0 0.01 0.19 0.19 92 1012.9
20260510002027 71 80 0.0 0.0 0.01 0.19 0.19 92 1013.3
20260510001527 71 80 0.0 0.0 0.01 0.19 0.19 92 1013.5
20260510001027 71 81 0.0 0.0 0.01 0.19 0.19 92 1013.4
20260510000527 71 80 0.0 0.0 0.01 0.19 0.19 92 1013.6
20260510000034 71 81 0.0 0.0 0.01 0.19 0.19 92 1013.9
20260509235526 71 81 0.0 0.0 0.01 0.19 0.19 92 1013.8
20260509235025 71 81 0.0 0.0 0.00 0.18 0.18 92 1014.0
20260509234525 71 81 0.0 0.0 0.00 0.18 0.18 91 1014.1
20260509234030 71 81 0.0 0.0 0.00 0.18 0.18 91 1014.2
20260509233526 72 81 0.0 0.0 0.00 0.18 0.18 91 1014.1
20260509233025 72 81 0.0 0.0 0.00 0.18 0.18 91 1014.0
20260509232525 72 81 0.0 0.0 0.00 0.18 0.18 91 1014.0
20260509232025 72 81 0.0 0.0 0.00 0.18 0.18 91 1014.0
20260509231525 72 81 0.0 0.0 0.00 0.18 0.18 91 1013.9
20260509231024 72 80 0.0 0.0 0.00 0.18 0.18 91 1013.9
20260509230524 72 80 0.0 0.0 0.00 0.18 0.18 91 1013.9
20260509230024 72 80 0.0 0.0 0.00 0.18 0.18 91 1013.8
20260509225524 72 80 0.0 0.0 0.00 0.27 0.18 91 1013.9
20260509225023 72 80 0.0 0.0 0.00 0.27 0.18 91 1013.7
20260509224522 73 80 0.0 0.0 0.00 0.27 0.18 91 1013.6
20260509224023 73 80 0.0 0.0 0.00 0.27 0.18 91 1013.6
20260509223524 73 80 0.0 0.0 0.00 0.27 0.18 91 1013.7
20260509223022 73 80 0.0 0.0 0.00 0.27 0.18 91 1013.7
20260509222522 73 80 0.0 0.0 0.00 0.27 0.18 91 1013.7
20260509222022 73 80 0.0 0.0 0.00 0.27 0.18 91 1013.6
20260509221523 73 80 0.0 0.0 0.00 0.27 0.18 91 1013.5
20260509221022 73 80 0.0 0.0 0.00 0.27 0.18 91 1013.7
20260509220522 73 80 0.0 0.0 0.00 0.27 0.18 91 1013.6
20260509220023 73 80 0.0 0.0 0.00 0.27 0.18 91 1013.6
20260509215521 73 80 0.0 0.0 0.00 0.27 0.18 91 1013.4
20260509215021 73 80 0.0 0.0 0.00 0.27 0.18 91 1013.4
20260509214521 73 80 0.0 0.0 0.00 0.27 0.18 90 1013.5
20260509214020 73 80 0.0 0.0 0.00 0.27 0.18 90 1013.4
20260509213520 73 360 0.0 0.0 0.00 0.27 0.18 90 1013.3
20260509213027 73 80 0.0 1.0 0.00 0.27 0.18 90 1013.0
20260509212521 73 80 0.0 0.0 0.00 0.27 0.18 90 1013.2
20260509212020 73 81 0.0 1.0 0.00 0.27 0.18 90 1013.2
20260509211520 74 82 0.0 1.0 0.00 0.27 0.18 90 1013.0
20260509211020 74 82 0.0 2.0 0.00 0.27 0.18 90 1013.1
20260509210520 74 81 0.0 2.0 0.00 0.27 0.18 90 1013.1
20260509210020 74 294 0.0 0.0 0.00 0.27 0.18 90 1013.1
20260509205519 74 293 0.0 2.0 0.00 0.27 0.18 90 1013.2
20260509205018 74 360 0.0 1.0 0.00 0.27 0.18 90 1013.1
20260509204519 74 360 0.0 1.0 0.00 0.27 0.18 90 1012.9
20260509204018 75 269 0.0 1.0 0.00 0.27 0.18 91 1012.9
20260509203517 74 360 0.0 3.0 0.00 0.27 0.18 90 1013.0
20260509203018 75 360 0.0 3.0 0.01 0.27 0.18 90 1013.1
20260509202517 75 257 0.0 0.0 0.01 0.27 0.18 90 1013.0
20260509202017 75 360 0.0 2.0 0.07 0.27 0.18 91 1013.1
20260509201517 75 360 0.0 3.0 0.12 0.27 0.18 91 1013.1
20260509201016 75 360 0.0 3.0 0.12 0.27 0.18 91 1012.9
20260509200519 75 360 0.0 3.0 0.12 0.27 0.18 90 1012.9
20260509200016 75 360 0.0 2.0 0.12 0.27 0.18 90 1012.9
20260509195516 74 360 0.0 0.0 0.12 0.27 0.18 90 1013.0
20260509195015 74 360 0.0 0.0 0.12 0.27 0.18 90 1012.8
20260509194515 74 160 0.0 0.0 0.12 0.27 0.18 90 1012.9
20260509194019 74 160 0.0 0.0 0.13 0.27 0.18 90 1012.9
20260509193515 74 160 0.0 4.0 0.14 0.27 0.18 89 1012.9
20260509193024 75 360 0.0 4.0 0.15 0.26 0.17 88 1013.0
20260509192514 75 360 0.0 5.0 0.15 0.25 0.16 87 1013.1
20260509192014 77 281 2.0 5.0 0.08 0.18 0.09 88 1013.4
20260509191516 77 246 0.0 0.0 0.05 0.15 0.06 89 1013.2
20260509191014 78 236 0.0 2.0 0.06 0.15 0.06 89 1013.1
20260509190517 78 200 0.0 0.0 0.06 0.15 0.06 89 1013.1
20260509190015 78 200 0.0 0.0 0.06 0.15 0.06 89 1012.9
20260509185513 78 200 0.0 0.0 0.06 0.15 0.06 88 1012.9
20260509185013 78 200 0.0 0.0 0.06 0.15 0.06 88 1013.0
20260509184528 78 200 0.0 0.0 0.06 0.15 0.06 87 1013.1
20260509184015 79 200 0.0 0.0 0.05 0.14 0.05 87 1012.9
20260509183512 79 200 0.0 0.0 0.03 0.12 0.03 87 1013.1
20260509183011 79 200 0.0 0.0 0.02 0.11 0.02 86 1013.1
20260509182511 80 200 0.0 1.0 0.01 0.10 0.01 85 1013.1
20260509182011 80 200 0.0 2.0 0.01 0.10 0.01 84 1013.2
20260509181510 80 200 0.0 2.0 0.00 0.09 0.00 83 1013.1
20260509181011 80 199 0.0 4.0 0.00 0.09 0.00 81 1013.1
20260509180509 80 211 2.0 4.0 0.00 0.09 0.00 80 1013.4
20260509180013 81 212 0.0 2.0 0.00 0.09 0.00 80 1013.2
20260509175513 81 231 0.0 0.0 0.00 0.09 0.00 80 1013.2
20260509175009 81 177 0.0 2.0 0.00 0.09 0.00 80 1013.4
20260509174515 81 175 0.0 2.0 0.00 0.09 0.00 80 1013.3
20260509174009 81 143 0.0 2.0 0.00 0.09 0.00 80 1013.4
20260509173512 81 231 0.0 3.0 0.00 0.09 0.00 80 1013.5
20260509173007 81 229 0.0 3.0 0.00 0.09 0.00 79 1013.5
20260509172507 81 312 1.0 3.0 0.00 0.09 0.00 80 1013.5
20260509172005 80 317 0.0 2.0 0.00 0.09 0.00 82 1013.5
20260509171505 80 190 0.0 4.0 0.00 0.09 0.00 82 1013.3
20260509171004 80 192 1.0 4.0 0.00 0.09 0.00 82 1013.3
20260509170503 80 177 0.0 1.0 0.00 0.09 0.00 82 1013.3
20260509170005 79 178 0.0 1.0 0.00 0.09 0.00 82 1013.4
20260509165501 79 180 0.0 3.0 0.00 0.09 0.00 82 1013.5
20260509165100 79 180 0.0 3.0 0.00 0.09 0.00 82 1013.6
20260509165000 79 180 0.0 3.0 0.00 0.09 0.00 82 1013.5
20260509164600 79 148 0.0 2.0 0.00 0.09 0.00 83 1013.5
20260509164059 79 128 1.0 2.0 0.00 0.09 0.00 82 1013.7
20260509163559 79 127 1.0 3.0 0.00 0.09 0.00 82 1013.9
20260509163107 79 35 0.0 3.0 0.00 0.09 0.00 83 1013.8
20260509162559 79 21 0.0 3.0 0.00 0.09 0.00 83 1013.7
20260509162058 78 195 0.0 0.0 0.00 0.09 0.00 84 1013.7
20260509161656 78 196 0.0 0.0 0.00 0.09 0.00 83 1013.7
20260509161059 78 196 0.0 0.0 0.00 0.09 0.00 83 1013.8
20260509160555 78 196 0.0 0.0 0.00 0.09 0.00 84 1013.9
20260509160056 78 196 0.0 0.0 0.00 0.09 0.00 84 1013.8
20260509155556 77 196 0.0 2.0 0.00 0.09 0.00 84 1014.1
20260509155054 77 196 0.0 2.0 0.00 0.09 0.00 84 1014.0
20260509154554 78 195 0.0 4.0 0.00 0.09 0.00 84 1014.1
20260509154053 78 195 1.0 4.0 0.00 0.09 0.00 84 1014.0
20260509153552 77 203 0.0 0.0 0.00 0.09 0.00 84 1013.9
20260509153103 77 360 0.0 0.0 0.00 0.09 0.00 85 1013.8
20260509152551 77 360 0.0 0.0 0.00 0.09 0.00 85 1013.6
20260509152049 77 205 0.0 0.0 0.00 0.09 0.00 85 1013.6
20260509151550 76 205 0.0 0.0 0.00 0.09 0.00 85 1013.6
20260509151049 76 205 0.0 0.0 0.00 0.09 0.00 85 1013.7
20260509150550 76 205 0.0 0.0 0.00 0.09 0.00 85 1013.9
20260509150049 76 204 0.0 0.0 0.00 0.09 0.00 85 1013.8
20260509145549 76 205 0.0 0.0 0.00 0.09 0.00 86 1013.8
20260509145047 76 360 0.0 0.0 0.00 0.09 0.00 86 1014.0
20260509144546 76 360 0.0 1.0 0.00 0.09 0.00 86 1014.1
20260509144045 76 202 0.0 1.0 0.00 0.09 0.00 86 1013.9
20260509143545 75 360 0.0 2.0 0.00 0.09 0.00 87 1013.8
20260509143043 75 360 0.0 4.0 0.00 0.09 0.00 87 1013.6
20260509142541 75 360 0.0 4.0 0.00 0.09 0.00 87 1013.8
20260509142040 75 360 0.0 0.0 0.00 0.09 0.00 87 1013.6
20260509141539 74 360 0.0 3.0 0.00 0.09 0.00 88 1013.6
20260509141041 74 360 0.0 3.0 0.00 0.09 0.00 88 1013.6
20260509140536 74 360 0.0 0.0 0.00 0.09 0.00 88 1013.5
20260509140035 73 360 0.0 0.0 0.00 0.09 0.00 88 1013.6
20260509135536 73 360 0.0 0.0 0.00 0.09 0.00 88 1014.0
20260509135033 73 360 0.0 0.0 0.00 0.09 0.00 88 1014.1
20260509134532 73 360 0.0 0.0 0.00 0.09 0.00 89 1014.1
20260509134030 73 214 0.0 0.0 0.00 0.09 0.00 89 1014.1
20260509133528 73 244 0.0 2.0 0.00 0.09 0.00 89 1014.2
20260509133027 73 249 0.0 2.0 0.00 0.09 0.00 89 1014.0
20260509132526 73 360 0.0 0.0 0.00 0.09 0.00 89 1013.9
20260509132025 72 360 0.0 0.0 0.00 0.09 0.00 90 1013.6
20260509131523 72 360 0.0 0.0 0.00 0.09 0.00 90 1013.5
20260509131022 72 360 0.0 0.0 0.00 0.09 0.00 90 1013.4
20260509130521 72 360 0.0 2.0 0.00 0.09 0.00 90 1013.4
20260509130031 71 360 0.0 2.0 0.00 0.09 0.00 90 1013.4
20260509125520 71 360 0.0 2.0 0.00 0.09 0.00 90 1013.3
20260509125018 71 360 0.0 2.0 0.00 0.09 0.00 91 1013.4
20260509124519 71 360 0.0 2.0 0.00 0.09 0.00 91 1013.3
20260509124016 70 205 0.0 2.0 0.00 0.09 0.00 91 1013.3
20260509123516 70 204 0.0 2.0 0.00 0.09 0.00 91 1013.2
20260509123017 69 360 0.0 0.0 0.00 0.09 0.00 92 1013.1
20260509122513 69 360 0.0 0.0 0.00 0.09 0.00 92 1013.0
20260509122013 69 360 0.0 0.0 0.00 0.09 0.00 92 1013.0
20260509121516 68 360 0.0 0.0 0.00 0.09 0.00 92 1013.0
20260509121014 68 360 0.0 0.0 0.00 0.09 0.00 92 1012.9
20260509120513 68 360 0.0 3.0 0.00 0.09 0.00 92 1012.9
20260509120013 68 360 0.0 4.0 0.00 0.09 0.00 92 1012.9
20260509115512 67 360 0.0 2.0 0.00 0.09 0.00 92 1012.8
20260509115011 67 360 0.0 2.0 0.00 0.09 0.00 92 1012.7
20260509114511 67 360 0.0 3.0 0.00 0.09 0.00 93 1012.7
20260509114011 67 360 0.0 4.0 0.00 0.09 0.00 93 1012.6
20260509113511 66 360 1.0 4.0 0.00 0.09 0.00 93 1012.5
20260509113012 66 360 0.0 3.0 0.00 0.09 0.00 93 1012.6
20260509112511 66 360 0.0 0.0 0.00 0.09 0.00 93 1012.6
20260509112010 66 360 0.0 0.0 0.00 0.09 0.00 93 1012.6
20260509111511 66 360 0.0 0.0 0.00 0.09 0.00 93 1012.6
20260509111014 66 360 0.0 0.0 0.00 0.09 0.00 93 1012.5
20260509110512 66 360 0.0 0.0 0.00 0.09 0.00 93 1012.4
20260509110010 66 360 0.0 0.0 0.00 0.09 0.00 93 1012.4
20260509105510 65 360 0.0 4.0 0.00 0.09 0.00 93 1012.3
20260509105010 65 360 0.0 4.0 0.00 0.09 0.00 93 1012.3
20260509104511 65 360 0.0 3.0 0.00 0.09 0.00 93 1012.2
20260509104013 65 191 0.0 3.0 0.00 0.09 0.00 93 1012.2
20260509103509 65 186 0.0 0.0 0.00 0.09 0.00 93 1012.2
20260509103009 65 186 0.0 0.0 0.00 0.09 0.00 93 1012.2
20260509102510 65 186 0.0 2.0 0.00 0.09 0.00 93 1012.3
20260509102009 65 360 1.0 3.0 0.00 0.09 0.00 93 1012.4
20260509101511 65 360 0.0 3.0 0.00 0.09 0.00 93 1012.3
20260509101009 65 360 0.0 3.0 0.00 0.09 0.00 93 1012.3
20260509100508 65 360 0.0 2.0 0.00 0.09 0.00 93 1012.1
20260509100008 65 360 0.0 0.0 0.00 0.09 0.00 93 1012.2
20260509095507 65 320 0.0 0.0 0.00 0.09 0.00 93 1012.4
20260509095007 65 320 0.0 0.0 0.00 0.09 0.00 92 1012.6
20260509094505 65 320 0.0 0.0 0.00 0.09 0.00 92 1012.7
20260509094005 65 360 0.0 0.0 0.00 0.09 0.00 92 1013.0
20260509093508 65 360 0.0 0.0 0.00 0.09 0.00 92 1012.9
20260509093005 65 360 0.0 0.0 0.00 0.09 0.00 92 1012.8
20260509092507 65 360 0.0 0.0 0.00 0.09 0.00 92 1012.8
20260509092004 66 360 0.0 0.0 0.00 0.09 0.00 92 1012.7
20260509091507 66 360 0.0 0.0 0.00 0.09 0.00 92 1012.7
20260509091003 66 317 0.0 0.0 0.00 0.09 0.00 92 1012.7
20260509090503 66 317 0.0 0.0 0.00 0.09 0.00 92 1012.6
20260509090002 66 317 0.0 0.0 0.00 0.09 0.00 92 1012.6
20260509085501 66 318 0.0 0.0 0.00 0.09 0.00 92 1012.6
20260509085001 66 318 0.0 0.0 0.00 0.09 0.00 92 1012.6
20260509084604 66 317 0.0 0.0 0.00 0.09 0.00 92 1012.6
20260509084102 66 360 0.0 0.0 0.00 0.09 0.00 92 1012.4
20260509083600 66 360 0.0 0.0 0.00 0.09 0.00 92 1012.4
20260509083108 66 317 0.0 0.0 0.00 0.09 0.00 92 1012.4
20260509082559 66 360 0.0 0.0 0.00 0.09 0.00 92 1012.6
20260509082059 66 360 0.0 0.0 0.00 0.09 0.00 92 1012.7
20260509081559 66 360 0.0 0.0 0.00 0.09 0.00 92 1012.7
20260509081059 66 320 0.0 0.0 0.00 0.09 0.00 92 1012.7
20260509080601 66 320 0.0 0.0 0.00 0.09 0.00 92 1012.8
20260509080100 66 320 0.0 0.0 0.00 0.09 0.00 92 1012.9
20260509075557 66 320 0.0 0.0 0.00 0.09 0.00 92 1012.9
20260509075056 67 320 0.0 0.0 0.00 0.09 0.00 92 1013.1
20260509074557 67 320 0.0 0.0 0.00 0.09 0.00 92 1013.1
20260509074056 67 320 0.0 0.0 0.00 0.09 0.00 92 1013.1
20260509073554 67 320 0.0 0.0 0.00 0.09 0.00 92 1012.9
20260509073055 67 320 0.0 0.0 0.00 0.09 0.00 92 1012.9
20260509072553 67 320 0.0 0.0 0.00 0.09 0.00 92 1012.9
20260509072053 67 320 0.0 0.0 0.00 0.09 0.00 92 1012.9
20260509071552 67 320 0.0 0.0 0.00 0.09 0.00 92 1013.0
20260509071052 67 320 0.0 0.0 0.00 0.09 0.00 92 1012.9
20260509070552 67 320 0.0 0.0 0.00 0.09 0.00 92 1013.0
20260509070050 67 320 0.0 0.0 0.00 0.09 0.00 92 1013.2
20260509065554 67 320 0.0 0.0 0.00 0.09 0.00 92 1013.5
20260509065048 67 320 0.0 0.0 0.00 0.09 0.00 92 1013.5
20260509064548 67 320 0.0 0.0 0.00 0.09 0.00 91 1013.6
20260509064047 68 320 0.0 0.0 0.00 0.09 0.00 91 1013.6
20260509063550 68 320 0.0 0.0 0.00 0.09 0.00 91 1013.6
20260509063046 68 320 0.0 0.0 0.00 0.09 0.00 91 1013.7
20260509062545 68 320 0.0 0.0 0.00 0.09 0.00 91 1013.9
20260509062045 68 320 0.0 0.0 0.00 0.09 0.00 91 1013.9
20260509061546 68 320 0.0 0.0 0.00 0.09 0.00 91 1014.0
20260509061045 68 320 0.0 0.0 0.00 0.09 0.00 91 1014.1
20260509060543 68 320 0.0 0.0 0.00 0.09 0.00 91 1014.1
20260509060054 68 320 0.0 0.0 0.00 0.09 0.00 91 1014.2
20260509055544 68 320 0.0 0.0 0.00 0.09 0.00 91 1014.2
20260509055042 68 320 0.0 0.0 0.00 0.09 0.00 91 1014.1
20260509054546 68 320 0.0 0.0 0.00 0.09 0.00 91 1014.3
20260509054045 68 320 0.0 0.0 0.00 0.09 0.00 91 1014.4
20260509053541 68 320 0.0 0.0 0.00 0.09 0.00 91 1014.5
20260509053102 68 320 0.0 0.0 0.00 0.09 0.00 91 1014.5
20260509052542 68 321 0.0 0.0 0.00 0.09 0.00 91 1014.7
20260509052041 68 324 0.0 0.0 0.00 0.09 0.00 91 1014.5